TimeEDT,TemperatureF,Dew PointF,Humidity,Sea Level PressureIn,VisibilityMPH,Wind Direction,Wind SpeedMPH,Gust SpeedMPH,PrecipitationIn,Events,Conditions,WindDirDegrees,DateUTC
12:15 AM,30.6,25.3,81,29.87,10.0,NNE,10.4,-,N/A,,Mostly Cloudy,20,2013-03-25 04:15:00
12:34 AM,30.9,25.5,80,29.87,10.0,NNE,9.2,-,N/A,,Overcast,30,2013-03-25 04:34:00
12:55 AM,31.5,25.3,78,29.87,10.0,NE,6.9,-,N/A,,Overcast,40,2013-03-25 04:55:00
1:14 AM,31.6,24.4,75,29.87,10.0,NE,6.9,-,N/A,,Overcast,40,2013-03-25 05:14:00
1:34 AM,31.8,23.9,73,29.87,10.0,NE,9.2,-,N/A,,Overcast,40,2013-03-25 05:34:00
1:55 AM,31.6,24.4,75,29.87,10.0,NE,11.5,-,N/A,,Overcast,40,2013-03-25 05:55:00
2:14 AM,31.8,24.6,75,29.87,10.0,NE,10.4,-,N/A,,Overcast,40,2013-03-25 06:14:00
2:35 AM,32.0,25.2,76,29.87,10.0,NE,12.7,17.3,N/A,,Overcast,50,2013-03-25 06:35:00
2:54 AM,32.0,25.3,76,29.87,10.0,NE,10.4,-,N/A,,Overcast,50,2013-03-25 06:54:00
3:14 AM,32.0,25.2,76,29.87,10.0,NE,8.1,17.3,N/A,,Overcast,50,2013-03-25 07:14:00
3:34 AM,32.0,25.3,76,29.87,10.0,NE,10.4,-,N/A,,Overcast,50,2013-03-25 07:34:00
3:54 AM,32.0,25.3,76,29.87,10.0,NE,11.5,-,N/A,,Overcast,40,2013-03-25 07:54:00
4:14 AM,32.0,25.5,77,29.87,10.0,NE,10.4,-,N/A,,Overcast,40,2013-03-25 08:14:00
4:34 AM,31.6,25.3,78,29.86,10.0,NNE,9.2,-,N/A,,Overcast,30,2013-03-25 08:34:00
4:55 AM,31.5,25.0,77,29.86,10.0,NE,9.2,-,N/A,,Overcast,40,2013-03-25 08:55:00
5:14 AM,31.1,24.6,77,29.86,10.0,NE,9.2,-,N/A,,Mostly Cloudy,50,2013-03-25 09:14:00
5:35 AM,31.1,24.8,77,29.86,10.0,NE,9.2,-,N/A,,Overcast,40,2013-03-25 09:35:00
5:54 AM,31.1,24.8,77,29.86,10.0,NE,10.4,16.1,N/A,,Overcast,40,2013-03-25 09:54:00
6:14 AM,31.1,25.2,79,29.86,10.0,NNE,6.9,-,N/A,,Overcast,30,2013-03-25 10:14:00
6:35 AM,30.9,25.3,80,29.86,10.0,NNE,6.9,-,N/A,,Overcast,30,2013-03-25 10:35:00
6:54 AM,30.9,24.8,78,29.86,10.0,NE,9.2,-,N/A,,Overcast,40,2013-03-25 10:54:00
7:14 AM,30.7,24.8,79,29.86,10.0,NNE,11.5,-,N/A,,Overcast,30,2013-03-25 11:14:00
7:34 AM,30.7,24.8,79,29.86,10.0,NNE,9.2,16.1,N/A,,Overcast,30,2013-03-25 11:34:00
7:54 AM,30.6,24.8,79,29.86,10.0,NNE,10.4,-,N/A,,Overcast,20,2013-03-25 11:54:00
8:14 AM,30.2,24.8,80,29.87,10.0,NNE,10.4,-,N/A,,Overcast,20,2013-03-25 12:14:00
8:34 AM,30.2,24.8,80,29.87,10.0,NNE,12.7,17.3,N/A,,Overcast,30,2013-03-25 12:34:00
8:55 AM,30.2,24.8,80,29.87,10.0,NNE,11.5,-,N/A,,Overcast,30,2013-03-25 12:55:00
9:14 AM,30.2,25.0,81,29.88,10.0,NNE,11.5,17.3,N/A,,Overcast,30,2013-03-25 13:14:00
9:34 AM,30.6,25.5,82,29.88,10.0,NNE,12.7,17.3,N/A,,Overcast,30,2013-03-25 13:34:00
9:55 AM,30.7,25.7,82,29.88,10.0,NNE,12.7,-,N/A,,Overcast,20,2013-03-25 13:55:00
10:14 AM,30.6,25.5,82,29.88,10.0,NNE,13.8,-,N/A,,Overcast,20,2013-03-25 14:14:00
10:34 AM,31.1,26.1,82,29.88,10.0,NNE,13.8,18.4,N/A,,Overcast,20,2013-03-25 14:34:00
10:55 AM,30.9,25.7,81,29.89,10.0,North,15.0,20.7,N/A,,Mostly Cloudy,10,2013-03-25 14:55:00
11:14 AM,30.9,25.7,81,29.89,10.0,North,16.1,19.6,N/A,,Overcast,10,2013-03-25 15:14:00
11:34 AM,31.1,26.4,83,29.90,4.0,North,15.0,19.6,N/A,Snow,Light Snow,10,2013-03-25 15:34:00
11:55 AM,32.0,26.6,80,29.90,7.0,North,12.7,-,N/A,Snow,Light Snow,10,2013-03-25 15:55:00
12:14 PM,32.2,27.0,81,29.90,10.0,North,16.1,19.6,N/A,,Overcast,360,2013-03-25 16:14:00
12:35 PM,32.5,26.6,79,29.90,10.0,North,16.1,23.0,N/A,,Overcast,10,2013-03-25 16:35:00
12:55 PM,32.5,26.6,79,29.90,10.0,North,17.3,-,N/A,,Overcast,360,2013-03-25 16:55:00
1:14 PM,32.5,26.8,79,29.90,10.0,North,15.0,21.9,N/A,,Overcast,360,2013-03-25 17:14:00
1:35 PM,32.7,27.0,79,29.90,10.0,North,15.0,19.6,N/A,,Overcast,360,2013-03-25 17:35:00
1:55 PM,33.1,27.0,78,29.90,10.0,North,15.0,21.9,N/A,,Overcast,360,2013-03-25 17:55:00
2:14 PM,32.9,27.1,79,29.91,10.0,North,13.8,-,N/A,,Overcast,360,2013-03-25 18:14:00
2:35 PM,33.4,28.0,81,29.91,10.0,North,10.4,18.4,N/A,,Overcast,350,2013-03-25 18:35:00
2:54 PM,33.4,27.7,79,29.91,10.0,North,8.1,17.3,N/A,,Overcast,360,2013-03-25 18:54:00
3:14 PM,33.6,28.2,81,29.90,10.0,North,12.7,17.3,N/A,,Overcast,360,2013-03-25 19:14:00
3:34 PM,34.2,28.4,79,29.90,10.0,North,9.2,16.1,N/A,,Mostly Cloudy,350,2013-03-25 19:34:00
3:54 PM,34.2,28.2,79,29.91,10.0,North,9.2,-,N/A,,Mostly Cloudy,350,2013-03-25 19:54:00
4:15 PM,34.2,27.9,78,29.91,10.0,North,8.1,-,N/A,,Overcast,360,2013-03-25 20:15:00
4:34 PM,34.3,28.0,78,29.91,10.0,North,9.2,-,N/A,,Overcast,350,2013-03-25 20:34:00
4:54 PM,34.9,28.8,78,29.91,10.0,NNW,6.9,-,N/A,,Overcast,340,2013-03-25 20:54:00
5:15 PM,34.7,28.8,79,29.92,10.0,NNW,8.1,-,N/A,,Overcast,340,2013-03-25 21:15:00
5:34 PM,34.7,29.1,80,29.92,10.0,NNW,5.8,-,N/A,,Overcast,340,2013-03-25 21:34:00
5:54 PM,34.7,29.3,81,29.93,10.0,NNW,9.2,-,N/A,,Overcast,340,2013-03-25 21:54:00
6:15 PM,34.7,29.3,81,29.93,10.0,North,10.4,-,N/A,,Overcast,350,2013-03-25 22:15:00
6:34 PM,34.3,30.2,85,29.93,10.0,North,10.4,-,N/A,,Overcast,350,2013-03-25 22:34:00
6:55 PM,34.2,30.2,85,29.94,10.0,North,10.4,-,N/A,,Overcast,350,2013-03-25 22:55:00
7:15 PM,34.2,30.2,85,29.95,10.0,North,11.5,-,N/A,,Overcast,350,2013-03-25 23:15:00
7:34 PM,34.0,29.8,85,29.96,10.0,North,12.7,17.3,N/A,,Overcast,350,2013-03-25 23:34:00
7:55 PM,33.8,29.8,85,29.97,10.0,North,11.5,-,N/A,,Overcast,350,2013-03-25 23:55:00
8:15 PM,33.8,30.0,86,29.97,10.0,North,9.2,16.1,N/A,,Overcast,350,2013-03-26 00:15:00
8:34 PM,33.8,30.0,86,29.98,10.0,NNW,11.5,17.3,N/A,,Overcast,340,2013-03-26 00:34:00
8:55 PM,33.8,30.0,86,29.99,10.0,NNW,11.5,-,N/A,,Overcast,340,2013-03-26 00:55:00
9:14 PM,33.6,30.2,87,30.00,10.0,NNW,11.5,16.1,N/A,,Overcast,340,2013-03-26 01:14:00
9:35 PM,33.4,30.0,87,30.00,10.0,NNW,10.4,17.3,N/A,,Overcast,340,2013-03-26 01:35:00
9:54 PM,33.4,29.8,87,30.00,10.0,NNW,11.5,17.3,N/A,,Overcast,340,2013-03-26 01:54:00
10:14 PM,33.4,29.7,86,30.01,10.0,NNW,10.4,-,N/A,,Overcast,340,2013-03-26 02:14:00
10:35 PM,33.3,29.7,87,30.01,10.0,North,10.4,-,N/A,,Overcast,350,2013-03-26 02:35:00
10:54 PM,33.3,29.5,86,30.01,10.0,NNW,9.2,-,N/A,,Overcast,340,2013-03-26 02:54:00
11:15 PM,33.1,29.7,87,30.02,10.0,NNW,6.9,-,N/A,,Overcast,340,2013-03-26 03:15:00
11:34 PM,33.1,30.0,89,30.02,10.0,NW,4.6,-,N/A,,Overcast,320,2013-03-26 03:34:00
11:54 PM,33.1,30.2,89,30.02,10.0,NNW,3.5,-,N/A,,Overcast,330,2013-03-26 03:54:00